[[{"header":{"parameterUnit":"m.s-1","parameterCategory":2,"la1":30.2991,"la2":30.254,"lo1":-89.0895,"lo2":-89.0444,"dx":0.0017,"dy":0.0017,"nx":28,"ny":28,"refTime":"2022-12-13T15:00:00:Z","depth":"0","parameterNumber":2,"parameterNumberName":"U-component_of_CURRENTS"},"data":[0,0,0,0,0,0,0,0,0,0,0,0,0,0,0,0,0,0,0,0,0,0,0,0,0,0,0,0,0,0,0,0,0,0,0,0,0,0,0,0,0,0,0,0,0,0,0,0,0,0,0,0,0,0,0,0,0,0,0.1446,0.1447,0,0.1464,0.1464,0.1464,0.1456,0.1456,0.1456,0.1455,0.145,0.145,0.145,0,0,0,0,0,0,0,0,0,0,0,0,0,0.1405,0.1406,0.1446,0.1447,0.1447,0.1464,0.1464,0.1464,0.1456,0.1456,0.1455,0.1455,0.145,0.145,0.145,0,0,0,0,0,0,0,0,0,0,0,0,0,0.1422,0.1406,0.1446,0.1446,0.1447,0.1464,0.1464,0.1464,0.1456,0.1456,0.1455,0.1455,0.145,0.145,0.145,0.146,0,0,0.145,0.1451,0,0,0,0,0,0,0,0,0.1421,0.1423,0.1446,0.1446,0.1447,0.1459,0.1448,0.1462,0.1456,0.1451,0.1455,0.1455,0.1452,0.1452,0.1454,0.1459,0.1459,0.1451,0.1451,0.1451,0.1451,0,0,0,0,0,0,0,0.1419,0.1422,0.1452,0.1447,0.1447,0.1446,0.1447,0.1451,0.1452,0.1451,0.1451,0.1456,0.1452,0.1454,0.1454,0.1459,0.1451,0.1451,0.1451,0.1451,0.1497,0.1498,0,0,0,0,0,0,0.1422,0.1421,0.1451,0.1452,0.1434,0.1447,0.1449,0.1454,0.1452,0.1452,0.1456,0.1456,0.1454,0.1454,0.1454,0.148,0.1451,0.1451,0.1451,0.1496,0.1498,0.1499,0,0,0,0,0,0,0.1421,0.1424,0.145,0.1438,0.1442,0.1448,0.1454,0.1455,0.1459,0.1457,0.1456,0.1461,0.1454,0.1453,0.1467,0.1479,0.1451,0.1451,0.1495,0.1497,0.1498,0.1524,0,0,0,0,0,0,0.1419,0.1424,0.1428,0.1439,0.1443,0.1466,0.1455,0.1455,0.1463,0.1463,0.146,0.1459,0.1453,0.1467,0.1467,0.1479,0.1451,0.1493,0.1496,0.1498,0.1522,0.1526,0.153,0,0,0,0,0,0.1418,0.1425,0.1428,0.1432,0.1449,0.1467,0.1469,0.147,0.1464,0.1471,0.1473,0.1459,0.1481,0.1468,0.1468,0.148,0.1492,0.1495,0.1497,0.152,0.1525,0.153,0,0,0,0,0,0,0.1407,0.1425,0.1429,0.144,0.1456,0.1466,0.1473,0.1474,0.1481,0.1479,0.1472,0.1472,0.149,0.1485,0.1472,0.1502,0.1485,0.1488,0.1502,0.1507,0.1511,0.1512,0.1451,0,0,0,0,0,0.1409,0.1419,0.1437,0.1447,0.1456,0.1465,0.1472,0.1476,0.1484,0.1486,0.1486,0.149,0.1501,0.1504,0.1511,0.1525,0.1557,0.1535,0.1539,0.1543,0.1546,0.1593,0.1602,0.1507,0.1507,0.1507,0,0,0.1406,0.1419,0.1424,0.1446,0.1456,0.1473,0.1468,0.1483,0.1495,0.1485,0.15,0.1506,0.151,0.1529,0.1536,0.1525,0.1598,0.1546,0.1549,0.155,0.1597,0.1606,0.1614,0.1509,0.1509,0.1508,0,0,0.141,0.142,0.1432,0.1449,0.1471,0.148,0.1486,0.1502,0.1508,0.1527,0.1525,0.154,0.1551,0.1559,0.1564,0.1598,0.162,0.1601,0.1619,0.1665,0.1673,0.1681,0.1779,0.1794,0.16,0.16,0.16,0,0.1407,0.1425,0.1439,0.1458,0.1472,0.1484,0.1501,0.1513,0.1531,0.1543,0.1535,0.1567,0.1566,0.1595,0.1606,0.1606,0.1655,0.1596,0.1671,0.1678,0.1685,0.1784,0.1801,0.1601,0.1601,0.1601,0.1601,0,0.1422,0.1439,0.1449,0.1477,0.1493,0.1511,0.1533,0.1548,0.1556,0.157,0.1601,0.1606,0.1628,0.1629,0.1625,0.1674,0.1705,0.1673,0.1656,0.1696,0.1798,0.1815,0.1604,0.1603,0.1603,0.1602,0,0,0.141,0.1451,0.1454,0.1469,0.1505,0.1518,0.1548,0.1579,0.1602,0.1617,0.1655,0.1664,0.1674,0.1681,0.1682,0.1711,0.1813,0.1714,0.1716,0.181,0.1967,0.1957,0.1975,0.1795,0.1797,0.1798,0.2035,0,0.1418,0.1453,0.1472,0.1502,0.1522,0.1545,0.1576,0.1605,0.1629,0.1671,0.1685,0.1725,0.1693,0.1717,0.174,0.1799,0.1853,0.1755,0.1915,0.1921,0.1903,0.1991,0.1953,0.2156,0.2052,0.2055,0.2057,0,0.1426,0.1451,0.148,0.1522,0.1533,0.1551,0.1599,0.163,0.1691,0.1716,0.1751,0.1777,0.1843,0.1799,0.1924,0.1868,0.1924,0.1959,0.1968,0.1954,0.194,0.209,0.2191,0.2136,0.2083,0.2081,0.2079,0,0.141,0.1453,0.1474,0.1488,0.1539,0.1554,0.1586,0.1641,0.168,0.1759,0.1806,0.1868,0.193,0.1986,0.2057,0.2012,0.2198,0.2149,0.2199,0.2202,0.2198,0.2195,0.2255,0.2237,0.2237,0.2236,0.2235,0,0.1411,0.1426,0.1465,0.1477,0.1507,0.155,0.1592,0.1634,0.1713,0.1769,0.1833,0.1897,0.1975,0.2077,0.2119,0.2234,0.2261,0.2236,0.2259,0.221,0.2206,0.2175,0.2137,0.2245,0.2243,0.2241,0.224,0,0.1385,0.1413,0.1437,0.1484,0.1497,0.1521,0.1592,0.1628,0.1716,0.1797,0.1837,0.1968,0.211,0.2193,0.2325,0.2334,0.2375,0.245,0.2414,0.2425,0.2383,0.2347,0.2337,0.2264,0.2569,0.257,0.2571,0,0.1373,0.1383,0.1426,0.1439,0.1456,0.1498,0.1529,0.1615,0.1666,0.1828,0.1876,0.2047,0.2148,0.2371,0.2441,0.257,0.244,0.2583,0.2458,0.2404,0.2383,0.2235,0.2161,0.2505,0.2506,0.2506,0.2506,0,0.1348,0.1361,0.1379,0.1412,0.1435,0.1467,0.1526,0.1567,0.1681,0.1772,0.1912,0.2015,0.2243,0.2369,0.2533,0.258,0.246,0.259,0.2539,0.2349,0.2188,0.2121,0.2361,0.2508,0.2508,0.2508,0.2508,0.2508,0.132,0.1326,0.1354,0.1379,0.1405,0.1434,0.1448,0.1526,0.1613,0.1741,0.1878,0.2023,0.2253,0.2486,0.2513,0.2562,0.2486,0.2517,0.2497,0.2365,0.2213,0.2474,0.2614,0.2614,0.2615,0.2615,0.2615,0,0.1289,0.1302,0.1323,0.1346,0.1354,0.1388,0.144,0.1454,0.1526,0.1683,0.1806,0.2068,0.223,0.2378,0.2548,0.2501,0.2339,0.2433,0.2225,0.2168,0.2442,0.2354,0.2434,0.2434,0.2434,0.2434,0.2434,0.2434,0.1273,0.128,0.1295,0.1292,0.1305,0.1298,0.1314,0.135,0.1444,0.1607,0.1765,0.1921,0.222,0.2445,0.2481,0.2423,0.2214,0.2138,0.2075,0.2292,0.2296,0.23,0.2207,0.2256,0.2255,0.1712,0.1708,0.1705]},{"header":{"parameterUnit":"m.s-1","parameterCategory":2,"la1":30.2991,"la2":30.254,"lo1":-89.0895,"lo2":-89.0444,"dx":0.0017,"dy":0.0017,"nx":28,"ny":28,"refTime":"2022-12-13T15:00:00:Z","depth":"0","parameterNumber":3,"parameterNumberName":"V-component_of_CURRENTS"},"data":[0,0,0,0,0,0,0,0,0,0,0,0,0,0,0,0,0,0,0,0,0,0,0,0,0,0,0,0,0,0,0,0,0,0,0,0,0,0,0,0,0,0,0,0,0,0,0,0,0,0,0,0,0,0,0,0,0,0,0.0026,0.0025,0,-0.0027,-0.0028,-0.0028,-0.0066,-0.0066,-0.0066,-0.0067,-0.0146,-0.0148,-0.0149,0,0,0,0,0,0,0,0,0,0,0,0,0,0.0064,0.0064,0.0026,0.0025,0.0024,-0.0027,-0.0028,-0.0029,-0.0066,-0.0066,-0.0067,-0.0067,-0.0145,-0.0147,-0.015,0,0,0,0,0,0,0,0,0,0,0,0,0,0.0033,0.0064,0.0026,0.0,-0.0003,-0.0027,-0.0028,-0.0029,-0.0066,-0.0066,-0.0067,-0.0067,-0.0144,-0.0147,-0.015,-0.016,0,0,-0.0159,-0.016,0,0,0,0,0,0,0,0,0.0035,0.0031,0.0005,0.0002,-0.0001,-0.004,-0.0043,-0.0074,-0.0066,-0.0043,-0.0067,-0.0067,-0.0112,-0.0117,-0.0127,-0.0164,-0.0167,-0.0159,-0.016,-0.0162,-0.0162,0,0,0,0,0,0,0,0.0037,0.0033,0.0004,0.0004,0.0,-0.0019,-0.0023,-0.0049,-0.0076,-0.0045,-0.0047,-0.0052,-0.0114,-0.0124,-0.0129,-0.0169,-0.0159,-0.0161,-0.0163,-0.0164,-0.0221,-0.0221,0,0,0,0,0,0,0.0047,0.0035,0.0006,0.0002,0.0017,-0.0019,-0.0024,-0.0028,-0.0075,-0.0082,-0.0052,-0.0053,-0.0119,-0.0126,-0.0132,-0.0146,-0.0162,-0.0164,-0.0166,-0.0221,-0.0221,-0.0221,0,0,0,0,0,0,0.0048,0.0045,0.0008,0.0018,0.0012,-0.0019,-0.0023,-0.0028,-0.0039,-0.008,-0.0088,-0.0056,-0.012,-0.0128,-0.0153,-0.015,-0.0166,-0.0168,-0.0221,-0.0221,-0.0221,-0.0175,0,0,0,0,0,0,0.0049,0.0045,0.0047,0.0019,0.0012,-0.0001,-0.0022,-0.0029,-0.0041,-0.0044,-0.0086,-0.0094,-0.0121,-0.0148,-0.0155,-0.0154,-0.017,-0.0222,-0.0221,-0.0221,-0.0176,-0.0173,-0.017,0,0,0,0,0,0.0051,0.0056,0.0048,0.0044,0.0015,-0.0001,-0.0006,-0.003,-0.004,-0.0041,-0.007,-0.0092,-0.0151,-0.015,-0.0159,-0.0158,-0.0222,-0.0221,-0.0221,-0.0178,-0.0173,-0.017,0,0,0,0,0,0,0.0076,0.0052,0.0042,0.0041,0.0024,-0.0007,-0.0009,-0.0026,-0.0049,-0.0052,-0.0091,-0.0101,-0.0121,-0.0145,-0.0143,-0.0173,-0.019,-0.0191,-0.0154,-0.015,-0.0147,-0.0136,-0.0173,0,0,0,0,0,0.0083,0.008,0.0055,0.0055,0.0049,0.0021,0.0012,-0.0004,-0.0029,-0.0039,-0.0068,-0.0099,-0.0126,-0.0141,-0.0167,-0.0184,-0.0187,-0.0189,-0.0186,-0.0183,-0.0179,-0.0187,-0.0184,-0.0219,-0.0219,-0.0219,0,0,0.0094,0.008,0.0079,0.006,0.0045,0.0039,0.0014,0.0005,-0.0001,-0.0044,-0.0059,-0.0088,-0.0127,-0.0146,-0.0157,-0.0166,-0.0168,-0.0182,-0.0179,-0.0178,-0.0187,-0.0183,-0.018,-0.0219,-0.0219,-0.0219,0,0,0.0114,0.0102,0.0105,0.0093,0.0075,0.0057,0.0057,0.003,0.0017,-0.0,-0.0033,-0.0058,-0.0097,-0.0125,-0.0145,-0.0139,-0.0149,-0.0146,-0.0123,-0.013,-0.0127,-0.0125,-0.0095,-0.0091,-0.0146,-0.0146,-0.0146,0,0.0129,0.0127,0.0105,0.0104,0.0097,0.0068,0.007,0.0054,0.0023,0.0015,0.0002,-0.0053,-0.0088,-0.0114,-0.0114,-0.0132,-0.0123,-0.0134,-0.0125,-0.0123,-0.0121,-0.0092,-0.0087,-0.0143,-0.0144,-0.0144,-0.0144,0,0.0148,0.0147,0.0149,0.0138,0.0127,0.0126,0.0101,0.0093,0.0074,0.0055,0.0031,-0.0013,-0.0043,-0.0062,-0.0089,-0.0097,-0.0088,-0.0117,-0.0132,-0.0114,-0.0084,-0.008,-0.014,-0.0141,-0.0142,-0.0142,0,0,0.0183,0.0167,0.0168,0.0168,0.0145,0.014,0.0133,0.0118,0.0124,0.0086,0.0093,0.003,0.0012,-0.0011,-0.0047,-0.0063,-0.0041,-0.0081,-0.0082,-0.0044,-0.0022,-0.0029,-0.0025,-0.0066,-0.0066,-0.0065,0.0005,0,0.0206,0.0215,0.0196,0.0204,0.0207,0.0179,0.018,0.0162,0.0147,0.015,0.01,0.0096,0.0031,0.0032,-0.0001,-0.0024,-0.0032,-0.0055,-0.0051,-0.005,-0.0054,-0.0022,-0.0051,0.0007,0.0009,0.0009,0.001,0,0.023,0.0233,0.0245,0.0241,0.0241,0.024,0.0239,0.024,0.023,0.0223,0.0199,0.0175,0.015,0.0098,0.0056,0.005,0.0017,-0.0009,-0.0008,-0.0031,-0.0051,-0.0017,0.0014,-0.0132,0.0016,0.0015,0.0015,0,0.0265,0.0267,0.0278,0.0275,0.0267,0.027,0.0271,0.0262,0.029,0.0287,0.0323,0.0262,0.0284,0.0207,0.015,0.0111,0.0123,0.0063,0.0027,0.0028,-0.0005,-0.0008,-0.0114,0.0033,0.0032,0.0032,0.0032,0,0.0295,0.0305,0.0297,0.0304,0.0329,0.0311,0.0345,0.0342,0.0375,0.0437,0.0376,0.0428,0.0314,0.0304,0.0205,0.0152,0.0169,0.0046,0.0041,0.0013,0.0011,-0.0127,-0.0202,0.0035,0.0034,0.0034,0.0033,0,0.033,0.0322,0.0339,0.0341,0.0346,0.0368,0.041,0.045,0.0475,0.0565,0.0585,0.0588,0.0567,0.0456,0.0372,0.0263,0.0107,0.0157,0.0152,0.0143,-0.0068,-0.0137,-0.0211,-0.0277,0.0118,0.0118,0.0118,0,0.0347,0.0359,0.0375,0.0396,0.0398,0.0431,0.0469,0.0496,0.0562,0.0672,0.074,0.0757,0.078,0.0659,0.045,0.0293,0.0147,0.0172,0.0062,-0.0072,-0.0153,-0.0202,-0.0257,0.0056,0.0056,0.0055,0.0055,0,0.0384,0.0389,0.0407,0.0458,0.0495,0.0546,0.0611,0.0683,0.0756,0.0856,0.0993,0.1029,0.0896,0.0729,0.0502,0.036,0.0052,0.016,0.001,-0.0217,-0.0266,-0.0334,0.0029,0.0052,0.0053,0.0053,0.0053,0.0053,0.0419,0.0446,0.048,0.053,0.058,0.0675,0.0749,0.0846,0.0988,0.1163,0.1175,0.1251,0.0976,0.0644,0.0437,0.0019,0.0027,-0.0121,-0.0188,-0.0219,-0.0321,0.0055,0.0067,0.0068,0.0068,0.0068,0.0068,0,0.0474,0.0506,0.0554,0.0627,0.0707,0.0721,0.0859,0.0958,0.1147,0.1281,0.1396,0.1294,0.0944,0.0562,0.0016,-0.027,-0.0397,-0.0428,-0.0534,-0.0571,-0.0248,-0.0293,-0.0346,-0.0345,-0.0345,-0.0345,-0.0345,-0.0345,0.0508,0.0569,0.0597,0.0732,0.0794,0.0932,0.1026,0.1171,0.1284,0.1455,0.1498,0.1507,0.1222,0.024,-0.045,-0.0617,-0.0814,-0.0846,-0.093,-0.0756,-0.0734,-0.0713,-0.0777,-0.0929,-0.093,-0.1246,-0.125,-0.1252]}],[{"header":{"parameterUnit":"m.s-1","parameterCategory":2,"la1":30.2991,"la2":30.254,"lo1":-89.0895,"lo2":-89.0444,"dx":0.0017,"dy":0.0017,"nx":28,"ny":28,"refTime":"2022-12-13T15:00:00:Z","depth":"2","parameterNumber":2,"parameterNumberName":"U-component_of_CURRENTS"},"data":[0,0,0,0,0,0,0,0,0,0,0,0,0,0,0,0,0,0,0,0,0,0,0,0,0,0,0,0,0,0,0,0,0,0,0,0,0,0,0,0,0,0,0,0,0,0,0,0,0,0,0,0,0,0,0,0,0,0,0.1413,0.1413,0,0.143,0.143,0.143,0.1434,0.1434,0.1434,0.1434,0.1455,0.1455,0.1456,0,0,0,0,0,0,0,0,0,0,0,0,0,0.1379,0.1379,0.1413,0.1413,0.1414,0.143,0.143,0.143,0.1434,0.1434,0.1434,0.1434,0.1454,0.1455,0.1456,0,0,0,0,0,0,0,0,0,0,0,0,0,0.1394,0.1379,0.1413,0.1418,0.1418,0.143,0.143,0.143,0.1434,0.1434,0.1434,0.1433,0.1454,0.1455,0.1456,0.1465,0,0,0.1459,0.1459,0,0,0,0,0,0,0,0,0.1393,0.1395,0.1417,0.1417,0.1418,0.143,0.1425,0.1442,0.1434,0.1428,0.1434,0.1433,0.1447,0.1448,0.1451,0.1466,0.1467,0.1459,0.146,0.146,0.146,0,0,0,0,0,0,0,0.1392,0.1395,0.142,0.1417,0.1418,0.1417,0.1419,0.1428,0.1438,0.1428,0.1429,0.1431,0.1447,0.1451,0.1452,0.1467,0.1459,0.146,0.146,0.1461,0.1531,0.1532,0,0,0,0,0,0,0.1391,0.1394,0.1419,0.142,0.1405,0.1417,0.142,0.1426,0.1438,0.1439,0.1431,0.1431,0.1449,0.1451,0.1453,0.1494,0.146,0.1461,0.1461,0.153,0.1531,0.1532,0,0,0,0,0,0,0.139,0.1393,0.1418,0.1407,0.141,0.1418,0.1425,0.1426,0.1435,0.144,0.1441,0.1439,0.1449,0.1451,0.1474,0.1493,0.1461,0.1462,0.1528,0.153,0.1532,0.1556,0,0,0,0,0,0,0.1389,0.1393,0.1399,0.1407,0.1411,0.1432,0.1425,0.1427,0.1437,0.1437,0.1447,0.1449,0.1449,0.1473,0.1475,0.1494,0.1463,0.1526,0.1529,0.1531,0.1554,0.1559,0.1563,0,0,0,0,0,0.1388,0.1395,0.1399,0.1402,0.1418,0.1432,0.1434,0.1439,0.1437,0.1446,0.1456,0.1449,0.149,0.1475,0.1477,0.1496,0.1525,0.1528,0.1531,0.1552,0.1558,0.1563,0,0,0,0,0,0,0.1383,0.1396,0.1401,0.1412,0.1425,0.1433,0.144,0.1444,0.1458,0.146,0.1462,0.1465,0.1493,0.1494,0.1477,0.1526,0.1508,0.1511,0.1523,0.1528,0.1533,0.1526,0.1464,0,0,0,0,0,0.1385,0.1394,0.1408,0.1418,0.1425,0.1435,0.1441,0.1446,0.1458,0.1464,0.1473,0.1487,0.1507,0.1516,0.1531,0.1554,0.1573,0.1571,0.1575,0.1579,0.1577,0.1619,0.1627,0.1542,0.1542,0.1542,0,0,0.1383,0.1394,0.1398,0.1418,0.1427,0.1443,0.1439,0.1453,0.1469,0.1465,0.1491,0.1503,0.1517,0.1546,0.1559,0.1549,0.1619,0.1583,0.1586,0.1581,0.1623,0.1631,0.1638,0.1544,0.1544,0.1543,0,0,0.1388,0.1399,0.1409,0.1424,0.1443,0.1452,0.1458,0.1474,0.1485,0.151,0.1516,0.1538,0.1564,0.1579,0.159,0.1629,0.1642,0.1639,0.1655,0.1696,0.1703,0.1709,0.1768,0.1779,0.164,0.164,0.164,0,0.1385,0.1404,0.1414,0.1432,0.1447,0.1457,0.1475,0.149,0.1512,0.1526,0.1523,0.1571,0.158,0.1617,0.1632,0.1638,0.1671,0.163,0.1701,0.1708,0.1714,0.1772,0.1784,0.1642,0.1642,0.1642,0.1641,0,0.14,0.1418,0.1427,0.1454,0.1471,0.1488,0.1511,0.153,0.1543,0.1558,0.1597,0.1611,0.1641,0.165,0.1652,0.1702,0.1717,0.1702,0.1684,0.1723,0.1783,0.1795,0.1644,0.1644,0.1643,0.1643,0,0,0.1385,0.1427,0.1431,0.1449,0.1485,0.1499,0.1532,0.1564,0.1591,0.1611,0.1649,0.1674,0.1682,0.1695,0.1704,0.1733,0.1809,0.1737,0.1738,0.1789,0.1924,0.1875,0.1884,0.181,0.1811,0.1813,0.1957,0,0.1393,0.1427,0.1449,0.1483,0.1504,0.1531,0.1562,0.1593,0.1623,0.1664,0.1682,0.1724,0.1701,0.1727,0.175,0.1803,0.1839,0.1773,0.1882,0.1885,0.1832,0.1894,0.1743,0.1852,0.1968,0.197,0.1972,0,0.1399,0.1424,0.1457,0.1504,0.1516,0.1538,0.1592,0.1624,0.1681,0.1707,0.1743,0.1769,0.1826,0.1795,0.1891,0.1855,0.1889,0.1917,0.1923,0.1871,0.1858,0.1827,0.1869,0.1992,0.199,0.1989,0.1988,0,0.1381,0.1429,0.1454,0.1471,0.1524,0.1546,0.1578,0.1635,0.1671,0.1746,0.1791,0.1843,0.1899,0.1936,0.1991,0.1959,0.2097,0.2061,0.2048,0.2046,0.1933,0.1918,0.212,0.2119,0.2119,0.2119,0.2118,0,0.138,0.14,0.1448,0.1462,0.1496,0.1541,0.1586,0.1629,0.17,0.1752,0.1814,0.1871,0.1938,0.2018,0.2037,0.2093,0.2141,0.2067,0.2079,0.194,0.1924,0.2045,0.2034,0.2124,0.2123,0.2122,0.2121,0,0.1352,0.1385,0.1415,0.147,0.1487,0.1514,0.1583,0.1617,0.1701,0.1777,0.1811,0.1931,0.2036,0.2097,0.2192,0.2168,0.2215,0.2215,0.2057,0.2046,0.2129,0.2118,0.2225,0.2225,0.2224,0.2224,0.2224,0,0.1342,0.1353,0.1406,0.1422,0.1446,0.149,0.1518,0.16,0.1648,0.1801,0.1841,0.1983,0.2054,0.219,0.2186,0.2232,0.2245,0.2106,0.199,0.2138,0.214,0.213,0.212,0.1874,0.1871,0.1869,0.1866,0,0.1317,0.1333,0.1357,0.1391,0.142,0.1454,0.1512,0.1547,0.1655,0.1734,0.1857,0.1935,0.2064,0.2054,0.2114,0.2097,0.2081,0.2053,0.2274,0.1853,0.1813,0.1812,0.1813,0.1843,0.1846,0.1847,0.1849,0.185,0.1293,0.1301,0.1331,0.1359,0.139,0.1421,0.1434,0.1506,0.1577,0.1676,0.1783,0.1848,0.1908,0.1916,0.1888,0.1862,0.1977,0.189,0.1896,0.1905,0.182,0.1779,0.179,0.1792,0.1794,0.1795,0.1796,0,0.126,0.1274,0.1297,0.1326,0.1334,0.1375,0.1426,0.1431,0.1489,0.1586,0.1659,0.1571,0.1597,0.1655,0.1591,0.16,0.1552,0.1531,0.1465,0.1491,0.1513,0.1404,0.1267,0.1265,0.1263,0.1261,0,0,0.1244,0.1248,0.126,0.1265,0.1284,0.1291,0.131,0.1326,0.1382,0.1389,0.1408,0.1519,0.1621,0.1421,0.141,0.1341,0.1395,0.1283,0.1714,0.1664,0.1683,0.1735,0.1599,0,0,0,0,0]},{"header":{"parameterUnit":"m.s-1","parameterCategory":2,"la1":30.2991,"la2":30.254,"lo1":-89.0895,"lo2":-89.0444,"dx":0.0017,"dy":0.0017,"nx":28,"ny":28,"refTime":"2022-12-13T15:00:00:Z","depth":"2","parameterNumber":3,"parameterNumberName":"V-component_of_CURRENTS"},"data":[0,0,0,0,0,0,0,0,0,0,0,0,0,0,0,0,0,0,0,0,0,0,0,0,0,0,0,0,0,0,0,0,0,0,0,0,0,0,0,0,0,0,0,0,0,0,0,0,0,0,0,0,0,0,0,0,0,0,-0.0171,-0.0171,0,-0.0217,-0.0218,-0.0218,-0.0248,-0.0248,-0.0248,-0.0248,-0.0317,-0.0318,-0.032,0,0,0,0,0,0,0,0,0,0,0,0,0,-0.0136,-0.0137,-0.0171,-0.0171,-0.0172,-0.0217,-0.0218,-0.0218,-0.0248,-0.0248,-0.0248,-0.0249,-0.0316,-0.0318,-0.032,0,0,0,0,0,0,0,0,0,0,0,0,0,-0.0164,-0.0137,-0.0171,-0.0192,-0.0194,-0.0217,-0.0218,-0.0219,-0.0248,-0.0248,-0.0248,-0.0249,-0.0315,-0.0318,-0.032,-0.0331,0,0,-0.0328,-0.0329,0,0,0,0,0,0,0,0,-0.0162,-0.0165,-0.0188,-0.019,-0.0193,-0.0227,-0.0231,-0.0257,-0.0248,-0.0228,-0.0248,-0.0249,-0.0288,-0.0293,-0.0301,-0.0334,-0.0337,-0.0328,-0.033,-0.0331,-0.0331,0,0,0,0,0,0,0,-0.016,-0.0164,-0.019,-0.0189,-0.0192,-0.0209,-0.0213,-0.0236,-0.0257,-0.023,-0.0232,-0.0236,-0.029,-0.0299,-0.0303,-0.0338,-0.0328,-0.033,-0.0332,-0.0333,-0.0385,-0.0384,0,0,0,0,0,0,-0.0152,-0.0162,-0.0188,-0.0191,-0.0178,-0.0209,-0.0214,-0.0216,-0.0256,-0.0262,-0.0236,-0.0238,-0.0294,-0.03,-0.0306,-0.0315,-0.0331,-0.0333,-0.0335,-0.0385,-0.0385,-0.0384,0,0,0,0,0,0,-0.0151,-0.0154,-0.0186,-0.0177,-0.0182,-0.0209,-0.0212,-0.0217,-0.0224,-0.0261,-0.0267,-0.0239,-0.0295,-0.0302,-0.0323,-0.0319,-0.0334,-0.0336,-0.0385,-0.0385,-0.0384,-0.0339,0,0,0,0,0,0,-0.015,-0.0153,-0.0151,-0.0177,-0.0183,-0.0195,-0.0212,-0.0217,-0.0227,-0.0229,-0.0265,-0.0272,-0.0296,-0.0319,-0.0326,-0.0322,-0.0338,-0.0385,-0.0385,-0.0385,-0.034,-0.0337,-0.0334,0,0,0,0,0,-0.0149,-0.0143,-0.0151,-0.0154,-0.0179,-0.0194,-0.0199,-0.0219,-0.0227,-0.0227,-0.0252,-0.0271,-0.0322,-0.0321,-0.0329,-0.0326,-0.0385,-0.0385,-0.0385,-0.0342,-0.0338,-0.0334,0,0,0,0,0,0,-0.0125,-0.0147,-0.0155,-0.0156,-0.0172,-0.0199,-0.0201,-0.0215,-0.0235,-0.0236,-0.027,-0.0278,-0.0295,-0.0317,-0.0315,-0.034,-0.0356,-0.0358,-0.0321,-0.0318,-0.0315,-0.0299,-0.0341,0,0,0,0,0,-0.0118,-0.0121,-0.0144,-0.0144,-0.015,-0.0174,-0.0182,-0.0195,-0.0217,-0.0225,-0.025,-0.0277,-0.03,-0.0313,-0.0336,-0.0351,-0.0365,-0.0354,-0.0351,-0.0348,-0.0341,-0.0358,-0.0355,-0.0383,-0.0383,-0.0383,0,0,-0.0109,-0.0121,-0.0122,-0.0139,-0.0152,-0.0156,-0.0179,-0.0187,-0.019,-0.023,-0.0239,-0.0266,-0.0301,-0.0316,-0.0326,-0.0334,-0.0347,-0.0348,-0.0345,-0.0339,-0.0357,-0.0354,-0.0352,-0.0383,-0.0383,-0.0383,0,0,-0.009,-0.01,-0.0097,-0.0108,-0.0124,-0.0139,-0.0139,-0.0163,-0.0172,-0.0186,-0.0215,-0.0237,-0.0271,-0.0295,-0.0312,-0.0305,-0.0329,-0.0314,-0.0287,-0.0303,-0.0301,-0.0299,-0.0309,-0.0309,-0.0313,-0.0313,-0.0313,0,-0.0077,-0.0076,-0.0097,-0.0096,-0.0101,-0.0128,-0.0124,-0.0137,-0.0164,-0.0169,-0.0182,-0.0229,-0.026,-0.028,-0.0279,-0.0297,-0.0308,-0.0298,-0.0298,-0.0297,-0.0295,-0.0307,-0.0306,-0.0311,-0.0311,-0.0311,-0.0312,0,-0.0058,-0.0056,-0.0053,-0.0061,-0.007,-0.0069,-0.0091,-0.0095,-0.011,-0.0126,-0.0145,-0.0186,-0.0212,-0.0229,-0.0254,-0.0262,-0.0272,-0.029,-0.0304,-0.0289,-0.0303,-0.0303,-0.0308,-0.0308,-0.0309,-0.031,0,0,-0.003,-0.0038,-0.0036,-0.0033,-0.005,-0.0054,-0.0055,-0.0064,-0.0056,-0.0088,-0.0083,-0.0133,-0.0152,-0.0172,-0.0207,-0.0226,-0.0231,-0.0251,-0.0253,-0.0255,-0.026,-0.0293,-0.0297,-0.0248,-0.0248,-0.0248,-0.0271,0,-0.0007,0.0006,-0.0008,0.0006,0.0012,-0.001,-0.0004,-0.0017,-0.0031,-0.003,-0.0074,-0.0082,-0.0132,-0.0137,-0.0166,-0.021,-0.0231,-0.0222,-0.028,-0.0281,-0.0308,-0.0299,-0.0272,-0.0292,-0.0271,-0.0272,-0.0272,0,0.0016,0.0022,0.004,0.0045,0.0047,0.0053,0.0058,0.0059,0.0048,0.004,0.0017,-0.0012,-0.0044,-0.0083,-0.0154,-0.0145,-0.0197,-0.0236,-0.0239,-0.0285,-0.0316,-0.0306,-0.0295,-0.0273,-0.0273,-0.0273,-0.0273,0,0.0048,0.0056,0.0074,0.0074,0.0076,0.0085,0.009,0.0084,0.0103,0.0093,0.0111,0.0053,0.0052,-0.003,-0.0118,-0.0131,-0.0191,-0.0221,-0.0302,-0.0305,-0.0301,-0.0304,-0.027,-0.027,-0.027,-0.0269,-0.0269,0,0.0076,0.0091,0.0094,0.0105,0.0136,0.0124,0.0158,0.0157,0.0175,0.0209,0.0157,0.0174,0.0068,0.0018,-0.0086,-0.0192,-0.0169,-0.0292,-0.0313,-0.0285,-0.0286,-0.0287,-0.0289,-0.027,-0.027,-0.027,-0.027,0,0.0108,0.0108,0.0132,0.0144,0.0152,0.0177,0.0213,0.0243,0.0256,0.0303,0.0312,0.0283,0.0208,0.0088,-0.0031,-0.0132,-0.0243,-0.0288,-0.0247,-0.0263,-0.0354,-0.0353,-0.038,-0.0381,-0.0382,-0.0383,-0.0384,0,0.0126,0.0141,0.0166,0.0188,0.0197,0.0231,0.0264,0.0283,0.0326,0.0366,0.0404,0.0358,0.0321,0.0133,-0.0053,-0.0236,-0.0257,-0.0323,-0.0357,-0.0348,-0.0365,-0.0362,-0.036,-0.0329,-0.0329,-0.0329,-0.0329,0,0.016,0.0169,0.019,0.0238,0.0273,0.0318,0.037,0.0419,0.0456,0.0485,0.053,0.0506,0.0339,0.0164,-0.0081,-0.0207,-0.0298,-0.0336,-0.0323,-0.0314,-0.0304,-0.032,-0.0318,-0.0331,-0.0331,-0.0331,-0.0331,-0.0331,0.0189,0.0212,0.0244,0.029,0.034,0.0412,0.0452,0.0514,0.0577,0.0629,0.0607,0.0577,0.0399,0.0079,-0.0122,-0.0323,-0.0335,-0.0398,-0.0395,-0.0392,-0.0391,-0.0385,-0.0427,-0.0427,-0.0427,-0.0428,-0.0428,0,0.0219,0.0248,0.0294,0.0351,0.0412,0.0436,0.0528,0.0564,0.0636,0.0676,0.068,0.0512,0.0322,0.0124,-0.0177,-0.0372,-0.0374,-0.0424,-0.0374,-0.0372,-0.0369,-0.0365,-0.0395,-0.0395,-0.0395,-0.0396,0,0,0.0237,0.028,0.0303,0.0402,0.0454,0.0542,0.0597,0.0644,0.069,0.0696,0.0688,0.063,0.0404,0.0195,-0.0064,-0.022,-0.0252,-0.0255,-0.0264,-0.0174,-0.0169,-0.0342,-0.0331,0,0,0,0,0]}],[{"header":{"parameterUnit":"m.s-1","parameterCategory":2,"la1":30.2991,"la2":30.254,"lo1":-89.0895,"lo2":-89.0444,"dx":0.0017,"dy":0.0017,"nx":28,"ny":28,"refTime":"2022-12-13T15:00:00:Z","depth":"4","parameterNumber":2,"parameterNumberName":"U-component_of_CURRENTS"},"data":[0,0,0,0,0,0,0,0,0,0,0,0,0,0,0,0,0,0,0,0,0,0,0,0,0,0,0,0,0,0,0,0,0,0,0,0,0,0,0,0,0,0,0,0,0,0,0,0,0,0,0,0,0,0,0,0,0,0,0.0863,0.0863,0,0.091,0.091,0.0911,0.0944,0.0944,0.0944,0.0945,0.0988,0.0989,0.099,0,0,0,0,0,0,0,0,0,0,0,0,0,0.0792,0.0793,0.0863,0.0863,0.0864,0.091,0.091,0.0911,0.0944,0.0944,0.0945,0.0945,0.0988,0.0989,0.099,0,0,0,0,0,0,0,0,0,0,0,0,0,0.0827,0.0793,0.0863,0.0888,0.089,0.091,0.091,0.0911,0.0943,0.0944,0.0945,0.0945,0.0988,0.0989,0.099,0.0984,0,0,0.0994,0.0994,0,0,0,0,0,0,0,0,0.0825,0.0829,0.0883,0.0886,0.0889,0.0923,0.0901,0.0936,0.0943,0.0921,0.0945,0.0946,0.0967,0.097,0.0975,0.0986,0.0988,0.0994,0.0994,0.0995,0.0995,0,0,0,0,0,0,0,0.0822,0.0828,0.0879,0.0884,0.0888,0.0893,0.0899,0.0908,0.0938,0.0923,0.0926,0.0934,0.0969,0.0973,0.0976,0.0989,0.0994,0.0995,0.0995,0.0996,0.1056,0.1057,0,0,0,0,0,0,0.0821,0.0825,0.0878,0.0881,0.086,0.0894,0.09,0.091,0.0938,0.0944,0.0934,0.0936,0.0971,0.0975,0.0978,0.1026,0.0995,0.0996,0.0997,0.1055,0.1056,0.1057,0,0,0,0,0,0,0.0819,0.0825,0.0876,0.0856,0.0863,0.0895,0.0905,0.0911,0.0936,0.0947,0.0952,0.0956,0.0972,0.0976,0.1004,0.1025,0.0996,0.0997,0.1054,0.1055,0.1056,0.1087,0,0,0,0,0,0,0.0817,0.0824,0.0838,0.0856,0.0864,0.09,0.0905,0.0911,0.094,0.0943,0.0967,0.0971,0.0973,0.1002,0.1005,0.1026,0.0998,0.1053,0.1054,0.1056,0.1085,0.1089,0.1093,0,0,0,0,0,0.0814,0.0828,0.0838,0.0845,0.088,0.0901,0.0906,0.0929,0.094,0.0954,0.0972,0.0971,0.1015,0.1004,0.1007,0.1029,0.1052,0.1054,0.1056,0.1083,0.1088,0.1093,0,0,0,0,0,0,0.0806,0.0834,0.0845,0.0868,0.089,0.0908,0.0927,0.094,0.0964,0.0974,0.0981,0.0986,0.1018,0.1019,0.1006,0.1052,0.1034,0.1037,0.1054,0.1059,0.1063,0.1066,0.0999,0,0,0,0,0,0.081,0.083,0.0853,0.0874,0.0887,0.091,0.0925,0.0941,0.0961,0.0974,0.099,0.1008,0.1025,0.1039,0.1051,0.1075,0.108,0.1092,0.1096,0.11,0.1105,0.1131,0.1138,0.1064,0.1064,0.1064,0,0,0.0813,0.0832,0.0844,0.0875,0.0895,0.0914,0.0921,0.0951,0.0969,0.0973,0.1009,0.1024,0.1035,0.1063,0.1078,0.1069,0.1124,0.1102,0.1105,0.1108,0.1134,0.1141,0.1148,0.1065,0.1065,0.1065,0,0,0.0822,0.0847,0.0864,0.0883,0.0917,0.093,0.0943,0.0972,0.099,0.1021,0.103,0.106,0.1085,0.1098,0.1107,0.1141,0.1144,0.1149,0.1174,0.12,0.1207,0.1212,0.1227,0.1233,0.1152,0.1152,0.1153,0,0.0825,0.085,0.0873,0.0892,0.0911,0.094,0.0958,0.0979,0.1013,0.1034,0.1039,0.1095,0.1101,0.1139,0.115,0.1151,0.1164,0.1154,0.1206,0.1211,0.1217,0.123,0.1237,0.1154,0.1154,0.1154,0.1154,0,0.0839,0.0866,0.088,0.0914,0.0934,0.0959,0.0985,0.1016,0.1043,0.1065,0.1117,0.1134,0.1171,0.1177,0.1173,0.1218,0.1214,0.1207,0.1192,0.1226,0.1238,0.1245,0.1157,0.1156,0.1156,0.1155,0,0,0.0826,0.088,0.0886,0.0906,0.0948,0.0965,0.1002,0.1043,0.108,0.1117,0.1162,0.1194,0.1219,0.123,0.1239,0.1258,0.1299,0.1251,0.1252,0.1263,0.1356,0.1281,0.1281,0.1306,0.1307,0.1308,0.1349,0,0.0833,0.087,0.0896,0.0933,0.0953,0.0991,0.1024,0.1065,0.1108,0.1158,0.1192,0.1239,0.1235,0.1264,0.1285,0.1302,0.1319,0.1289,0.1324,0.1324,0.1252,0.1287,0.1313,0.1354,0.1356,0.1357,0.1358,0,0.0834,0.0861,0.0896,0.0949,0.0963,0.0993,0.1058,0.1093,0.1165,0.1201,0.126,0.1288,0.1339,0.1322,0.1377,0.1363,0.1363,0.1365,0.1367,0.129,0.1261,0.1314,0.137,0.1369,0.1368,0.1367,0.1366,0,0.0806,0.086,0.089,0.0907,0.0969,0.1002,0.1044,0.1113,0.1152,0.124,0.1282,0.1346,0.1386,0.141,0.142,0.141,0.1463,0.1449,0.1379,0.1373,0.1415,0.1408,0.1475,0.1475,0.1475,0.1475,0.1475,0,0.0794,0.082,0.0887,0.0903,0.0948,0.0998,0.106,0.1113,0.1192,0.1245,0.131,0.1355,0.141,0.1443,0.1444,0.1434,0.1488,0.1389,0.1382,0.1426,0.1421,0.1419,0.1412,0.1476,0.1476,0.1476,0.1476,0,0.0757,0.0801,0.0838,0.0911,0.0937,0.0972,0.1062,0.1108,0.1192,0.1263,0.1294,0.1377,0.1431,0.1463,0.15,0.1457,0.1457,0.1432,0.148,0.1473,0.1345,0.1339,0.1371,0.1369,0.1367,0.1366,0.1364,0,0.0738,0.0757,0.0833,0.0859,0.0898,0.0961,0.1007,0.1098,0.1145,0.1266,0.1291,0.1373,0.142,0.1411,0.1451,0.1455,0.143,0.1414,0.1375,0.1346,0.1337,0.1334,0.1331,0.1361,0.1361,0.136,0.136,0,0.07,0.0738,0.0769,0.0825,0.0876,0.0927,0.1,0.1022,0.1131,0.1213,0.1263,0.1293,0.1344,0.137,0.1375,0.1373,0.1421,0.1394,0.1397,0.1361,0.1334,0.1326,0.1325,0.1353,0.1354,0.1355,0.1355,0,0.0671,0.0686,0.0737,0.078,0.084,0.088,0.0922,0.098,0.1032,0.1159,0.1173,0.1262,0.1336,0.1328,0.1338,0.1331,0.1313,0.1258,0.1269,0.1277,0.1225,0.1177,0.1147,0,0,0,0,0,0.0639,0.0656,0.0691,0.0737,0.0796,0.0836,0.0914,0.0958,0.1055,0.1065,0.1116,0.1163,0.1196,0.1235,0.1209,0.1298,0.1314,0.1262,0.1256,0.1316,0.1324,0.1272,0,0,0,0,0,0,0.0617,0.0649,0.0669,0.0695,0.0723,0.0785,0.0832,0.0897,0.0902,0.1,0.1021,0.1097,0.114,0.1203,0.119,0.1202,0.1174,0.1315,0.1312,0.1312,0.1319,0.1325,0.1274,0,0,0,0,0]},{"header":{"parameterUnit":"m.s-1","parameterCategory":2,"la1":30.2991,"la2":30.254,"lo1":-89.0895,"lo2":-89.0444,"dx":0.0017,"dy":0.0017,"nx":28,"ny":28,"refTime":"2022-12-13T15:00:00:Z","depth":"4","parameterNumber":3,"parameterNumberName":"V-component_of_CURRENTS"},"data":[0,0,0,0,0,0,0,0,0,0,0,0,0,0,0,0,0,0,0,0,0,0,0,0,0,0,0,0,0,0,0,0,0,0,0,0,0,0,0,0,0,0,0,0,0,0,0,0,0,0,0,0,0,0,0,0,0,0,-0.0084,-0.0085,0,-0.0113,-0.0113,-0.0113,-0.0134,-0.0135,-0.0135,-0.0135,-0.0165,-0.0165,-0.0166,0,0,0,0,0,0,0,0,0,0,0,0,0,-0.0059,-0.0059,-0.0084,-0.0085,-0.0085,-0.0113,-0.0113,-0.0113,-0.0134,-0.0135,-0.0135,-0.0135,-0.0165,-0.0165,-0.0166,0,0,0,0,0,0,0,0,0,0,0,0,0,-0.0076,-0.0059,-0.0084,-0.0099,-0.0101,-0.0113,-0.0113,-0.0113,-0.0134,-0.0135,-0.0135,-0.0135,-0.0164,-0.0165,-0.0166,-0.0164,0,0,-0.0169,-0.0169,0,0,0,0,0,0,0,0,-0.0075,-0.0077,-0.0097,-0.0098,-0.01,-0.0121,-0.0115,-0.0131,-0.0134,-0.0121,-0.0135,-0.0135,-0.015,-0.0152,-0.0156,-0.0165,-0.0167,-0.0169,-0.0169,-0.017,-0.017,0,0,0,0,0,0,0,-0.0074,-0.0076,-0.0095,-0.0097,-0.0099,-0.0108,-0.0111,-0.0118,-0.0133,-0.0122,-0.0124,-0.0128,-0.0151,-0.0155,-0.0157,-0.0167,-0.0169,-0.0169,-0.017,-0.017,-0.0183,-0.0183,0,0,0,0,0,0,-0.0071,-0.0075,-0.0094,-0.0096,-0.0089,-0.0109,-0.0112,-0.0113,-0.0133,-0.0136,-0.0128,-0.0129,-0.0154,-0.0156,-0.0158,-0.0157,-0.017,-0.017,-0.0171,-0.0183,-0.0183,-0.0183,0,0,0,0,0,0,-0.007,-0.0072,-0.0093,-0.0086,-0.009,-0.0109,-0.011,-0.0114,-0.0122,-0.0137,-0.014,-0.0133,-0.0154,-0.0157,-0.0166,-0.0159,-0.0171,-0.0172,-0.0184,-0.0183,-0.0183,-0.0156,0,0,0,0,0,0,-0.0069,-0.0071,-0.0072,-0.0086,-0.009,-0.0098,-0.011,-0.0114,-0.0124,-0.0126,-0.0142,-0.0145,-0.0154,-0.0164,-0.0167,-0.016,-0.0172,-0.0184,-0.0183,-0.0183,-0.0157,-0.0155,-0.0153,0,0,0,0,0,-0.0068,-0.0066,-0.0072,-0.0074,-0.009,-0.0098,-0.0101,-0.0115,-0.0124,-0.0124,-0.0137,-0.0145,-0.0164,-0.0165,-0.0168,-0.0161,-0.0184,-0.0184,-0.0183,-0.0158,-0.0155,-0.0153,0,0,0,0,0,0,-0.0056,-0.0068,-0.0075,-0.0078,-0.0087,-0.0102,-0.0105,-0.0115,-0.0126,-0.0129,-0.0144,-0.0148,-0.0154,-0.0161,-0.0162,-0.0164,-0.0175,-0.0175,-0.0155,-0.0152,-0.015,-0.0142,-0.0173,0,0,0,0,0,-0.0053,-0.0055,-0.0068,-0.0071,-0.0075,-0.009,-0.0096,-0.0105,-0.0116,-0.0122,-0.0134,-0.0145,-0.0153,-0.0156,-0.0166,-0.0166,-0.0188,-0.0163,-0.0161,-0.0159,-0.0155,-0.0181,-0.018,-0.0182,-0.0182,-0.0182,0,0,-0.005,-0.0057,-0.0058,-0.0068,-0.0077,-0.0076,-0.0094,-0.0101,-0.0098,-0.0123,-0.0124,-0.0141,-0.0153,-0.0154,-0.0157,-0.016,-0.0174,-0.0159,-0.0157,-0.0154,-0.018,-0.018,-0.018,-0.0182,-0.0182,-0.0182,0,0,-0.004,-0.0049,-0.0046,-0.005,-0.0061,-0.0069,-0.0071,-0.0085,-0.009,-0.0095,-0.0111,-0.0122,-0.0135,-0.014,-0.0144,-0.0136,-0.0164,-0.014,-0.0119,-0.0144,-0.0144,-0.0145,-0.0186,-0.019,-0.0135,-0.0135,-0.0135,0,-0.0035,-0.0032,-0.0046,-0.0042,-0.0042,-0.0064,-0.0056,-0.0062,-0.0078,-0.0079,-0.0092,-0.0115,-0.0126,-0.0125,-0.0122,-0.013,-0.0157,-0.0127,-0.0141,-0.0142,-0.0143,-0.0185,-0.019,-0.0134,-0.0134,-0.0134,-0.0134,0,-0.0021,-0.0018,-0.0016,-0.0016,-0.0018,-0.0016,-0.0024,-0.0027,-0.0039,-0.0049,-0.0059,-0.008,-0.0093,-0.0097,-0.0106,-0.0112,-0.0135,-0.0139,-0.0147,-0.0141,-0.0186,-0.0192,-0.0132,-0.0133,-0.0133,-0.0133,0,0,-0.0011,-0.0006,-0.0005,0.0003,-0.0002,-0.0001,0.0007,0.0007,0.001,-0.0011,-0.0013,-0.0028,-0.005,-0.0056,-0.0073,-0.0091,-0.0124,-0.0114,-0.0116,-0.0154,-0.0197,-0.0181,-0.0186,-0.0133,-0.0134,-0.0134,-0.0231,0,0.0005,0.0023,0.002,0.0038,0.0048,0.004,0.005,0.0047,0.0034,0.0026,0.0001,-0.0012,-0.0031,-0.0042,-0.0062,-0.011,-0.0136,-0.0099,-0.0197,-0.0201,-0.0186,-0.019,-0.0135,-0.0235,-0.0236,-0.0237,-0.0238,0,0.002,0.0032,0.0055,0.0073,0.0076,0.0083,0.0094,0.0101,0.0086,0.0074,0.0052,0.0023,-0.0008,-0.0026,-0.0106,-0.0084,-0.0136,-0.0174,-0.0179,-0.0175,-0.0194,-0.024,-0.0249,-0.0248,-0.0247,-0.0246,-0.0246,0,0.0038,0.0057,0.0078,0.0084,0.0098,0.0109,0.0116,0.0113,0.0122,0.0099,0.0086,0.0044,0.0011,-0.0049,-0.0133,-0.0124,-0.0232,-0.0229,-0.0266,-0.0267,-0.0265,-0.0264,-0.0283,-0.0283,-0.0283,-0.0282,-0.0282,0,0.0057,0.0074,0.0088,0.01,0.0128,0.013,0.0151,0.0152,0.0148,0.0153,0.0109,0.0091,0.0003,-0.0068,-0.0136,-0.0225,-0.0239,-0.0265,-0.0285,-0.0254,-0.0249,-0.027,-0.0268,-0.0286,-0.0285,-0.0285,-0.0284,0,0.0071,0.0081,0.0106,0.0127,0.0137,0.0155,0.0177,0.019,0.018,0.0181,0.0173,0.0111,0.0024,-0.0072,-0.0185,-0.0231,-0.0313,-0.0341,-0.0318,-0.0336,-0.0334,-0.0329,-0.0386,-0.0387,-0.0387,-0.0387,-0.0387,0,0.0081,0.0095,0.0125,0.0142,0.0151,0.0177,0.0197,0.0206,0.0216,0.0196,0.0193,0.0114,0.0064,-0.0092,-0.0189,-0.0325,-0.0333,-0.0387,-0.0336,-0.0328,-0.0342,-0.0337,-0.0332,-0.0387,-0.0387,-0.0387,-0.0387,0,0.0095,0.0102,0.0122,0.0157,0.018,0.0214,0.0238,0.0247,0.0254,0.0244,0.0215,0.0141,0.004,-0.0075,-0.0191,-0.0282,-0.0354,-0.0388,-0.0388,-0.0341,-0.0329,-0.0342,-0.0337,-0.0387,-0.0387,-0.0387,-0.0387,0,0.0099,0.0113,0.0134,0.0166,0.02,0.0235,0.025,0.0262,0.0274,0.0256,0.0243,0.0144,0.0083,-0.0054,-0.0157,-0.0249,-0.0256,-0.0275,-0.0281,-0.0282,-0.0211,-0.0179,-0.0209,0,0,0,0,0,0.0099,0.011,0.0141,0.0173,0.0211,0.0231,0.027,0.0281,0.0284,0.0276,0.0266,0.0182,0.0045,-0.0024,-0.0109,-0.0163,-0.0283,-0.0266,-0.0311,-0.039,-0.0389,-0.0321,0,0,0,0,0,0,0.0093,0.0117,0.0135,0.0174,0.0196,0.0238,0.0264,0.0273,0.0269,0.0262,0.019,0.0162,0.0023,0.0091,-0.0113,-0.0142,-0.018,-0.0332,-0.0334,-0.039,-0.0389,-0.0389,-0.0319,0,0,0,0,0]}]]